Wind_Speed
14 14 14 13 12 11 11 9 8 5 4 3 2 2 2 3 5 5 5 5 5 6 7 8 9 9 9 9 9 9 9 9 10 10 11 12 12 13 13 13 14 14 14 14 14 14 13 13 12
16 16 15 15 14 13 12 11 9 7 5 5 3 3 4 5 5 6 6 6 7 8 9 9 10 10 10 10 10 10 11 11 12 12 13 13 14 15 15 15 15 15 15 15 15 15 14 14 14
17 17 16 16 15 14 14 13 11 9 7 6 5 5 6 6 7 7 8 8 8 9 10 10 10 11 11 11 11 11 12 13 13 14 14 15 15 16 16 16 17 17 17 17 16 16 15 15 14
19 18 18 17 16 16 15 14 12 10 9 7 6 7 8 8 9 9 9 9 9 10 10 11 11 11 11 11 12 13 13 14 14 15 15 16 16 16 17 17 18 18 18 18 18 17 16 16 15
20 19 19 18 17 17 16 15 14 13 11 9 7 7 9 10 11 11 10 10 11 11 12 12 11 11 11 12 12 13 14 14 15 16 17 17 18 18 18 18 18 19 19 19 19 19 18 17 16
21 20 19 19 19 19 18 16 14 13 11 10 8 8 10 11 12 11 10 11 12 12 13 12 12 12 12 13 13 14 15 15 16 17 18 19 19 20 20 20 19 20 20 20 20 20 19 18 18
21 20 20 20 21 21 19 18 15 14 12 10 9 9 11 11 12 11 11 12 13 13 13 13 13 13 14 14 15 15 17 17 18 19 19 19 20 20 21 21 21 21 21 21 21 21 21 20 19
22 21 22 22 22 22 20 19 17 15 13 11 9 10 11 12 12 12 12 13 13 14 14 14 14 15 15 15 16 17 17 18 19 19 20 20 20 21 21 23 22 22 22 22 22 22 22 22 21
22 22 23 23 23 22 21 19 17 15 13 12 11 11 11 11 12 13 13 13 14 15 15 15 15 16 17 17 17 18 18 18 19 19 20 21 21 22 22 23 23 23 23 22 22 22 23 22 22
23 23 23 23 23 23 21 18 16 15 14 13 12 11 12 12 13 13 14 14 14 15 16 17 17 18 18 17 18 18 18 18 18 18 19 21 22 22 23 23 24 23 23 23 22 23 23 23 23
23 23 23 24 23 22 19 17 16 16 14 13 12 12 12 13 13 14 15 15 16 16 17 18 19 19 18 19 19 19 18 18 19 19 19 20 21 22 22 23 24 23 24 24 24 24 24 24 24
23 24 24 24 22 20 19 17 17 16 14 14 13 14 14 14 15 16 16 17 17 17 17 18 19 20 19 20 20 20 19 19 19 19 20 21 21 22 23 23 24 23 24 24 24 24 25 25 24
23 24 24 24 22 20 19 17 16 16 15 16 16 16 16 17 17 17 17 18 18 17 18 19 20 20 20 20 20 20 20 20 20 20 21 21 21 21 23 23 23 24 24 25 25 25 25 25 25
23 23 24 23 22 20 19 17 16 16 17 17 17 15 15 16 17 17 18 19 19 18 19 19 19 20 21 21 21 21 21 21 21 21 21 21 21 21 22 23 24 24 23 24 24 25 26 26 26
22 23 24 23 22 20 19 17 18 17 18 18 17 16 16 17 17 18 19 20 19 19 19 20 20 21 22 22 22 21 22 21 21 21 21 22 22 21 22 22 23 23 23 23 24 24 25 25 25
22 23 23 23 23 21 20 18 18 18 18 17 16 16 16 16 17 18 19 20 20 20 20 21 22 22 22 22 22 21 22 22 22 22 22 22 22 22 23 23 23 23 23 23 24 24 24 25 25
21 21 22 22 22 21 20 20 19 18 17 16 16 16 16 17 18 18 19 20 20 20 21 21 22 21 22 22 23 22 22 23 23 24 24 23 23 23 23 23 24 24 25 24 24 25 26 26 26
20 20 20 21 21 20 19 19 18 18 16 16 16 16 17 17 18 18 19 19 19 20 20 21 21 21 21 23 24 23 23 23 24 24 24 24 23 24 24 25 25 25 26 25 26 26 26 26 26
19 19 19 20 20 20 20 19 18 17 17 17 17 17 18 18 19 20 19 19 19 20 22 21 21 21 22 23 23 22 23 25 25 24 24 24 25 25 25 26 26 26 27 27 27 27 26 26 26
18 19 19 21 21 21 20 18 18 18 17 17 17 18 19 20 20 20 20 20 20 21 22 23 22 22 22 23 23 23 24 25 24 25 26 26 27 27 27 27 27 27 27 28 28 27 27 27 27
17 17 18 20 21 20 20 19 19 20 20 19 18 19 20 21 21 21 20 21 21 22 22 23 23 23 24 24 25 25 25 25 25 26 26 27 28 28 27 27 27 27 27 27 28 28 28 27 27
16 16 17 18 19 19 20 20 19 19 19 19 20 20 21 21 21 21 21 21 22 22 23 23 23 24 25 25 26 26 27 26 27 28 28 28 28 28 27 27 27 28 27 27 28 28 28 28 29
15 16 17 17 18 19 19 19 18 18 18 18 19 20 21 22 22 22 22 23 23 23 23 23 23 24 25 27 27 27 27 27 28 28 29 28 28 28 28 28 28 28 28 28 28 28 28 28 29
14 15 16 17 18 19 19 20 18 18 18 19 20 21 22 22 22 23 23 23 23 22 23 24 24 25 25 26 26 26 26 26 27 27 28 28 28 28 28 29 28 28 28 28 28 28 28 28 29
14 15 16 17 18 19 19 20 19 19 19 20 20 21 21 22 22 22 22 23 23 23 23 24 24 25 25 25 26 26 25 25 26 27 27 27 27 28 28 28 28 28 28 28 28 28 27 27 27
15 16 17 18 19 19 19 20 19 19 20 20 20 21 21 21 21 22 23 23 23 24 24 24 23 23 24 24 24 24 24 24 25 25 26 27 27 28 28 28 28 28 28 27 27 26 26 25 25
16 16 17 19 19 19 19 18 18 19 20 20 20 20 20 21 21 22 23 23 24 24 24 24 23 22 22 22 22 23 22 23 24 24 25 25 26 26 26 26 26 26 26 25 25 25 24 24 24
16 17 17 18 19 19 18 18 18 18 19 20 21 22 22 22 22 22 22 23 24 24 24 23 22 22 22 21 21 21 20 21 22 22 23 24 24 24 24 24 24 24 23 23 23 23 22 21 21
16 17 17 17 18 19 19 18 19 20 21 21 21 21 21 22 22 22 22 23 23 22 22 23 22 21 21 21 20 19 19 20 21 22 22 22 21 21 21 22 22 22 21 21 21 20 20 20 20
17 17 17 18 18 19 20 19 19 19 20 20 20 20 21 21 22 22 21 21 21 21 21 22 21 20 20 19 19 19 19 19 20 19 19 19 19 20 20 20 20 20 20 19 19 18 18 18 18
Wind_Direction
220 218 219 218 217 216 220 228 230 225 236 282 303 315 313 319 326 321 317 318 316 316 311 305 303 304 304 304 304 304 305 305 305 304 304 304 303 302 301 300 300 299 300 299 298 298 298 296 295
220 219 220 220 220 217 221 230 233 234 247 273 286 302 303 315 317 317 314 311 309 308 306 301 300 300 300 301 302 302 301 302 301 300 299 299 299 299 299 298 299 299 299 298 296 295 295 293 291
219 219 219 219 221 220 225 230 233 238 243 258 270 296 309 311 307 307 304 301 295 299 301 300 296 297 296 296 297 298 296 296 297 297 295 296 297 297 297 299 299 299 298 297 296 294 294 291 289
217 218 217 218 221 223 228 233 235 233 241 257 269 289 300 300 300 300 301 297 291 290 293 294 292 293 294 293 294 296 294 293 294 295 293 294 295 295 295 296 297 297 297 296 295 294 292 290 287
218 218 217 218 221 226 230 235 235 231 241 256 267 284 291 295 298 295 294 293 293 290 290 291 290 288 290 290 293 296 296 294 294 293 292 291 292 292 291 291 293 294 294 294 294 293 291 289 285
217 218 216 217 222 227 231 235 237 237 244 252 266 285 294 297 299 298 293 291 293 292 288 289 290 288 287 290 291 293 294 292 291 292 292 291 291 290 288 286 288 290 290 290 291 290 289 287 283
216 215 214 217 223 228 230 233 235 240 248 257 269 284 289 293 296 295 289 288 290 292 290 286 286 288 288 288 291 291 293 292 289 289 289 289 289 288 285 283 284 285 287 287 287 287 285 283 281
214 212 212 217 223 228 230 234 239 245 250 263 275 284 285 290 290 289 284 284 285 286 285 284 286 287 289 289 290 292 293 292 291 288 287 286 286 286 284 283 282 283 285 284 283 284 284 281 279
210 210 211 216 222 228 231 235 242 246 252 262 271 278 282 286 286 284 283 280 281 284 285 285 286 288 290 290 291 291 292 292 292 290 287 285 285 285 285 284 282 283 282 282 281 281 282 282 280
207 208 211 217 223 229 233 238 245 250 260 271 274 276 281 283 284 283 281 278 279 284 285 285 288 289 289 289 288 288 290 291 292 292 288 285 284 285 285 283 282 282 280 279 279 279 280 279 278
206 207 212 218 223 229 236 241 249 258 263 272 277 277 281 281 280 279 277 278 280 282 284 286 287 288 285 285 287 285 287 289 289 290 289 287 285 285 284 283 280 279 279 279 278 278 279 278 276
207 210 214 220 225 230 237 242 250 262 267 275 282 282 280 281 280 279 277 276 277 278 281 284 285 287 282 282 284 283 284 287 289 290 289 287 286 285 283 282 279 277 277 278 278 278 279 278 275
209 212 219 223 228 232 238 244 254 266 274 279 281 285 284 281 282 281 280 281 279 280 283 282 284 284 281 281 282 284 285 285 288 290 289 289 287 287 284 282 279 278 277 277 277 276 276 276 275
212 215 220 224 230 234 239 248 257 268 273 277 280 281 283 283 283 284 285 285 283 281 281 282 281 281 280 281 282 282 284 287 290 289 289 289 288 287 287 286 282 281 281 277 274 274 274 273 273
214 220 223 229 234 239 244 251 259 266 273 278 282 278 282 285 286 287 287 286 283 281 282 282 284 286 285 286 284 283 285 286 286 288 288 289 288 287 287 286 283 282 281 279 275 274 274 272 271
216 220 226 232 237 242 248 254 261 266 272 277 279 281 284 286 288 286 285 286 285 283 283 284 286 288 287 286 287 284 284 286 287 288 289 290 289 288 287 286 284 282 281 279 276 273 272 271 268
218 223 227 233 238 242 249 255 259 265 268 269 277 283 282 285 286 286 287 289 287 285 285 286 289 290 289 289 289 285 284 286 287 287 288 288 287 286 286 284 283 281 280 278 276 275 274 272 268
222 229 231 235 241 245 250 256 261 267 268 270 276 281 281 287 290 289 288 287 286 286 287 287 291 292 291 291 288 284 284 284 285 286 286 287 288 286 285 284 284 281 279 278 277 275 274 271 268
225 230 233 238 244 249 251 255 260 265 267 272 276 279 284 291 292 292 291 288 289 288 288 289 290 292 292 293 287 285 285 284 284 284 285 287 288 287 285 285 284 283 279 278 278 277 275 272 269
230 233 237 241 246 250 252 256 261 263 268 276 280 281 285 289 293 292 291 290 292 292 291 289 289 291 292 291 286 285 285 285 284 284 285 287 287 286 285 284 285 284 280 278 278 277 276 273 269
234 238 240 241 244 251 256 262 266 267 271 275 281 283 284 288 291 293 292 291 292 294 293 292 289 290 291 291 289 285 284 284 286 287 288 288 287 286 285 284 284 284 281 279 277 276 275 273 269
237 240 243 244 249 257 262 266 268 271 273 278 282 284 285 287 290 292 293 291 292 293 294 293 292 291 292 291 291 287 285 284 286 288 289 290 290 287 285 285 285 285 281 279 278 277 276 274 271
241 242 245 250 256 261 267 272 273 276 278 282 285 286 287 287 290 292 292 292 292 291 292 293 295 294 292 291 291 292 287 286 287 288 290 290 290 287 285 284 284 285 283 280 277 276 276 274 272
242 247 252 255 262 266 271 276 278 281 282 284 287 288 289 289 290 290 289 289 292 292 293 294 296 294 293 293 293 294 290 289 289 290 290 290 288 287 286 286 285 284 283 281 279 276 276 274 272
247 254 259 262 266 273 275 279 286 287 288 288 288 289 289 289 289 289 292 293 293 292 292 293 294 294 294 294 295 296 292 293 292 292 291 290 288 287 288 287 285 285 283 282 280 278 276 274 273
255 261 266 270 275 279 280 285 289 290 291 289 287 287 289 290 289 289 289 290 291 291 291 291 293 296 295 295 296 297 295 294 294 293 293 291 289 287 286 285 286 285 283 282 281 279 277 275 273
264 267 272 277 280 283 285 287 288 290 289 288 288 288 290 289 289 288 288 288 290 289 290 291 293 294 295 296 297 298 295 296 297 296 295 293 291 288 286 286 285 285 283 281 280 279 279 277 274
268 273 276 277 282 286 287 289 290 290 289 290 290 290 291 290 289 288 289 290 289 289 290 293 294 295 298 297 298 299 298 300 302 302 300 298 296 293 289 289 288 287 285 282 281 279 277 276 274
268 273 276 278 280 285 288 291 291 290 289 291 292 291 291 291 291 292 291 291 290 289 289 292 294 296 299 299 298 299 300 303 304 304 303 303 301 298 295 293 292 289 287 284 282 279 275 273 273
269 274 277 278 280 284 289 293 292 291 291 292 294 293 293 292 292 291 290 290 288 289 289 291 293 295 298 300 298 299 300 303 305 305 307 308 305 301 298 297 295 293 289 285 281 277 276 274 273
Height
5886 5888 5890 5893 5895 5896 5896 5897 5897 5899 5900 5901 5901 5902 5902 5903 5905 5907 5905 5904 5904 5904 5904 5903 5903 5902 5902 5902 5901 5901 5901 5901 5901 5901 5901 5901 5900 5900 5900 5899 5899 5899 5898 5898 5898 5897 5896 5896 5896
5884 5886 5889 5891 5893 5894 5895 5896 5897 5898 5899 5900 5900 5901 5901 5901 5902 5903 5902 5902 5903 5903 5903 5902 5902 5901 5901 5901 5900 5900 5900 5900 5899 5899 5899 5899 5898 5898 5898 5898 5897 5897 5896 5896 5895 5895 5895 5894 5894
5882 5884 5887 5889 5891 5893 5894 5895 5896 5897 5898 5899 5899 5899 5899 5900 5901 5901 5901 5901 5901 5901 5901 5901 5900 5900 5900 5899 5899 5898 5898 5898 5898 5897 5897 5896 5896 5896 5895 5895 5895 5894 5894 5893 5893 5893 5893 5892 5892
5880 5883 5885 5888 5889 5891 5892 5893 5895 5896 5897 5897 5898 5898 5898 5899 5900 5900 5900 5900 5900 5900 5899 5899 5898 5898 5898 5898 5897 5897 5896 5896 5895 5895 5895 5894 5894 5893 5893 5893 5892 5892 5891 5891 5891 5891 5890 5890 5890
5877 5880 5883 5885 5887 5889 5890 5891 5893 5894 5895 5896 5896 5896 5896 5897 5898 5898 5898 5899 5898 5898 5897 5897 5896 5896 5896 5896 5895 5895 5894 5894 5893 5893 5892 5892 5891 5891 5890 5890 5889 5889 5888 5888 5888 5887 5887 5887 5887
5876 5878 5881 5883 5885 5886 5888 5890 5891 5892 5893 5893 5894 5895 5895 5896 5896 5896 5896 5897 5897 5896 5896 5895 5895 5894 5894 5893 5893 5892 5892 5891 5891 5890 5889 5889 5888 5888 5887 5886 5886 5886 5885 5885 5885 5884 5884 5884 5884
5874 5876 5879 5881 5882 5884 5886 5888 5889 5890 5891 5892 5893 5893 5894 5894 5894 5894 5894 5894 5894 5894 5893 5893 5893 5892 5891 5891 5890 5890 5889 5888 5887 5887 5886 5886 5885 5884 5883 5883 5883 5882 5882 5881 5881 5881 5881 5881 5881
5870 5874 5876 5878 5880 5882 5884 5886 5887 5889 5890 5891 5891 5891 5892 5893 5892 5892 5892 5892 5892 5892 5891 5890 5890 5889 5889 5888 5887 5887 5886 5885 5884 5883 5883 5882 5882 5881 5880 5880 5879 5879 5878 5878 5877 5877 5877 5877 5877
5868 5872 5874 5876 5878 5880 5882 5884 5886 5887 5888 5889 5889 5889 5889 5890 5890 5890 5889 5889 5889 5889 5888 5888 5887 5886 5885 5885 5884 5883 5882 5881 5880 5880 5879 5878 5878 5877 5876 5876 5875 5875 5874 5874 5873 5873 5873 5873 5873
5865 5869 5872 5874 5876 5878 5880 5882 5884 5885 5886 5886 5886 5886 5886 5887 5887 5887 5887 5886 5886 5886 5885 5884 5884 5883 5882 5881 5880 5880 5879 5878 5877 5876 5875 5874 5873 5873 5872 5871 5871 5870 5870 5869 5869 5869 5869 5869 5868
5862 5866 5869 5871 5874 5876 5878 5880 5881 5882 5883 5883 5883 5883 5884 5884 5884 5884 5883 5883 5883 5882 5882 5881 5880 5879 5878 5878 5877 5876 5875 5874 5873 5872 5871 5870 5869 5868 5867 5866 5866 5865 5865 5865 5864 5864 5864 5864 5864
5861 5864 5866 5869 5871 5874 5876 5878 5879 5880 5880 5880 5880 5880 5881 5880 5880 5880 5880 5880 5879 5879 5878 5877 5877 5875 5875 5874 5873 5872 5871 5870 5869 5868 5867 5866 5865 5863 5862 5862 5861 5860 5860 5859 5859 5859 5859 5859 5859
5858 5862 5864 5867 5869 5872 5874 5875 5876 5877 5876 5877 5877 5877 5877 5877 5876 5876 5876 5876 5875 5874 5874 5874 5873 5872 5871 5870 5869 5868 5867 5866 5865 5864 5863 5861 5860 5859 5858 5857 5856 5855 5855 5854 5854 5853 5853 5853 5853
5857 5860 5863 5865 5867 5869 5871 5873 5874 5874 5874 5874 5874 5874 5874 5874 5873 5873 5872 5872 5871 5871 5870 5869 5868 5868 5867 5866 5865 5864 5863 5861 5860 5859 5858 5857 5855 5854 5853 5852 5851 5850 5849 5848 5848 5847 5847 5847 5848
5855 5859 5861 5863 5865 5867 5869 5870 5871 5871 5872 5871 5870 5870 5870 5869 5869 5869 5869 5868 5867 5867 5866 5865 5864 5863 5862 5861 5860 5859 5858 5857 5855 5854 5853 5852 5850 5849 5848 5847 5845 5844 5843 5843 5842 5842 5841 5841 5842
5854 5857 5860 5861 5863 5865 5868 5868 5869 5869 5869 5868 5867 5867 5868 5867 5866 5866 5865 5864 5863 5862 5862 5861 5860 5858 5857 5856 5855 5854 5853 5852 5851 5849 5848 5846 5845 5844 5842 5841 5840 5839 5838 5837 5836 5836 5836 5835 5836
5852 5855 5857 5859 5861 5863 5865 5866 5866 5866 5866 5865 5865 5864 5864 5864 5863 5863 5862 5861 5860 5858 5857 5856 5855 5853 5852 5851 5850 5849 5848 5847 5846 5844 5843 5841 5840 5838 5837 5835 5834 5833 5832 5831 5831 5830 5829 5829 5829
5851 5853 5855 5857 5859 5860 5862 5862 5863 5863 5863 5862 5862 5862 5861 5861 5860 5859 5858 5857 5856 5854 5853 5852 5850 5848 5847 5846 5844 5843 5842 5841 5840 5839 5837 5836 5834 5833 5831 5830 5828 5827 5826 5826 5825 5824 5823 5823 5823
5850 5852 5854 5855 5856 5858 5859 5859 5860 5860 5859 5859 5859 5858 5858 5857 5856 5855 5854 5853 5852 5850 5849 5847 5845 5844 5842 5840 5839 5838 5837 5836 5834 5833 5832 5830 5828 5827 5825 5824 5822 5821 5820 5819 5818 5817 5816 5816 5816
5849 5851 5852 5854 5854 5855 5856 5856 5857 5857 5857 5857 5856 5855 5854 5854 5853 5851 5850 5848 5847 5845 5844 5842 5840 5839 5837 5836 5835 5833 5831 5830 5828 5827 5826 5824 5822 5821 5819 5817 5816 5814 5813 5812 5811 5810 5809 5809 5808
5847 5849 5851 5852 5852 5852 5853 5854 5854 5854 5854 5853 5852 5852 5851 5850 5849 5847 5846 5844 5842 5840 5839 5837 5835 5834 5832 5831 5829 5828 5826 5824 5822 5821 5819 5817 5815 5814 5812 5810 5809 5807 5806 5805 5804 5803 5802 5801 5801
5846 5847 5848 5849 5849 5849 5851 5851 5851 5850 5850 5849 5849 5848 5847 5846 5844 5843 5841 5839 5838 5836 5834 5832 5830 5828 5827 5825 5823 5821 5819 5817 5816 5814 5812 5810 5807 5806 5804 5803 5801 5799 5798 5797 5796 5795 5794 5793 5793
5844 5845 5846 5846 5846 5847 5847 5847 5848 5847 5846 5846 5844 5844 5842 5841 5840 5838 5836 5834 5833 5831 5829 5827 5825 5824 5821 5819 5817 5815 5813 5811 5809 5807 5804 5802 5800 5799 5797 5795 5794 5792 5790 5789 5788 5787 5786 5785 5784
5842 5843 5843 5844 5844 5844 5844 5843 5844 5843 5842 5841 5840 5838 5837 5835 5834 5832 5830 5829 5828 5826 5824 5822 5820 5818 5816 5813 5811 5809 5807 5804 5802 5799 5797 5795 5793 5791 5789 5788 5786 5784 5783 5781 5780 5778 5777 5776 5775
5841 5842 5842 5841 5841 5841 5840 5839 5840 5838 5837 5836 5835 5833 5832 5830 5828 5827 5825 5824 5822 5821 5819 5817 5815 5812 5810 5807 5805 5802 5799 5797 5795 5792 5790 5788 5786 5784 5782 5780 5778 5776 5775 5773 5772 5770 5769 5768 5767
5838 5839 5839 5839 5838 5837 5836 5835 5836 5834 5832 5831 5829 5828 5827 5825 5824 5822 5821 5819 5817 5815 5813 5811 5809 5806 5804 5801 5798 5796 5793 5791 5788 5786 5783 5781 5778 5776 5774 5772 5770 5769 5767 5765 5764 5763 5762 5761 5760
5835 5835 5836 5835 5834 5833 5832 5832 5831 5829 5827 5826 5824 5823 5822 5821 5819 5817 5816 5814 5812 5809 5807 5805 5803 5800 5798 5795 5792 5790 5787 5784 5782 5779 5776 5774 5771 5769 5767 5765 5763 5761 5759 5758 5757 5756 5754 5754 5753
5833 5832 5832 5831 5830 5829 5828 5828 5827 5825 5823 5822 5820 5818 5817 5815 5814 5812 5810 5808 5806 5803 5801 5799 5797 5794 5792 5789 5787 5784 5781 5779 5776 5773 5770 5768 5765 5762 5760 5758 5756 5754 5753 5751 5750 5749 5748 5747 5746
5829 5829 5828 5827 5826 5825 5824 5826 5823 5821 5819 5817 5815 5813 5812 5810 5808 5806 5804 5802 5799 5797 5795 5793 5791 5789 5786 5784 5782 5779 5776 5774 5771 5768 5765 5762 5759 5756 5754 5752 5750 5748 5746 5745 5743 5743 5742 5741 5741
5825 5825 5824 5824 5823 5821 5820 5822 5818 5816 5814 5812 5811 5809 5807 5805 5803 5801 5799 5796 5794 5792 5790 5788 5786 5784 5781 5779 5776 5774 5771 5769 5766 5763 5760 5757 5754 5751 5749 5747 5744 5742 5741 5739 5738 5737 5737 5736 5735